Вернуться в каталог

CZ-6A DEB

АктивенSSO
NORAD 57578·DEBRIS·🇨🇳 China

Запущен Nov 11, 2022 с Taiyuan Satellite Launch Center

Loading…

Ближайшие Пролёты (ближайшие 24 часа)

TLE

УстаревающийSource: Space-Track

Эпоха: Sep 9, 2026, 22:56 UTC

1 57578U 22151AHV 26252.95615413  .00000970  00000-0  36914-3 0  9996
2 57578  98.8462 306.9091 0046616  93.9647 266.6867 14.32652715176269

Отслеживайте CZ-6A DEB в реальном времени с AllMySat

Download on the App Store